owner,sensor,date,latitude,longitude,vertical_datum,sea_water_practical_salinity,qcFlag 
ENP,ioos.station.NOAA.NDBC:HCEF1:1,2017-10-01T00:00:00Z,25.2540,-80.4440,1.5,2.61,1111122 
ENP,ioos.station.NOAA.NDBC:HCEF1:1,2017-10-01T02:00:00Z,25.2540,-80.4440,1.5,2.42,1111122 
ENP,ioos.station.NOAA.NDBC:HCEF1:1,2017-10-01T03:00:00Z,25.2540,-80.4440,1.5,2.41,1111122 
ENP,ioos.station.NOAA.NDBC:HCEF1:1,2017-10-01T05:00:00Z,25.2540,-80.4440,1.5,2.34,1111122 
ENP,ioos.station.NOAA.NDBC:HCEF1:1,2017-10-01T06:00:00Z,25.2540,-80.4440,1.5,2.34,1111122 
ENP,ioos.station.NOAA.NDBC:HCEF1:1,2017-10-01T07:00:00Z,25.2540,-80.4440,1.5,2.34,1111122 
ENP,ioos.station.NOAA.NDBC:HCEF1:1,2017-10-01T08:00:00Z,25.2540,-80.4440,1.5,2.33,1111122 
ENP,ioos.station.NOAA.NDBC:HCEF1:1,2017-10-01T11:00:00Z,25.2540,-80.4440,1.5,2.1,1111122 
ENP,ioos.station.NOAA.NDBC:HCEF1:1,2017-10-01T12:00:00Z,25.2540,-80.4440,1.5,2.05,1111122 
ENP,ioos.station.NOAA.NDBC:HCEF1:1,2017-10-01T13:00:00Z,25.2540,-80.4440,1.5,1.99,1111122 
ENP,ioos.station.NOAA.NDBC:HCEF1:1,2017-10-01T14:00:00Z,25.2540,-80.4440,1.5,1.97,1111122 
ENP,ioos.station.NOAA.NDBC:HCEF1:1,2017-10-01T15:00:00Z,25.2540,-80.4440,1.5,2.14,1111122 
ENP,ioos.station.NOAA.NDBC:HCEF1:1,2017-10-01T16:00:00Z,25.2540,-80.4440,1.5,2.41,1111122 
ENP,ioos.station.NOAA.NDBC:HCEF1:1,2017-10-01T17:00:00Z,25.2540,-80.4440,1.5,2.42,1111122 
ENP,ioos.station.NOAA.NDBC:HCEF1:1,2017-10-01T18:00:00Z,25.2540,-80.4440,1.5,2.39,1111122 
ENP,ioos.station.NOAA.NDBC:HCEF1:1,2017-10-01T19:00:00Z,25.2540,-80.4440,1.5,2.39,1111122 
ENP,ioos.station.NOAA.NDBC:HCEF1:1,2017-10-01T20:00:00Z,25.2540,-80.4440,1.5,2.47,1111122 
ENP,ioos.station.NOAA.NDBC:HCEF1:1,2017-10-01T21:00:00Z,25.2540,-80.4440,1.5,2.5,1111122 
ENP,ioos.station.NOAA.NDBC:HCEF1:1,2017-10-01T22:00:00Z,25.2540,-80.4440,1.5,2.43,1111122 
ENP,ioos.station.NOAA.NDBC:HCEF1:1,2017-10-01T23:00:00Z,25.2540,-80.4440,1.5,2.45,1111122 
ENP,ioos.station.NOAA.NDBC:HCEF1:1,2017-10-02T00:00:00Z,25.2540,-80.4440,1.5,2.35,1111122 
ENP,ioos.station.NOAA.NDBC:HCEF1:1,2017-10-02T02:00:00Z,25.2540,-80.4440,1.5,2.05,1111122 
ENP,ioos.station.NOAA.NDBC:HCEF1:1,2017-10-02T03:00:00Z,25.2540,-80.4440,1.5,1.96,1111122 
ENP,ioos.station.NOAA.NDBC:HCEF1:1,2017-10-02T05:00:00Z,25.2540,-80.4440,1.5,2.2,1111122 
ENP,ioos.station.NOAA.NDBC:HCEF1:1,2017-10-02T06:00:00Z,25.2540,-80.4440,1.5,2.2,1111122 
ENP,ioos.station.NOAA.NDBC:HCEF1:1,2017-10-02T07:00:00Z,25.2540,-80.4440,1.5,2.31,1111122 
ENP,ioos.station.NOAA.NDBC:HCEF1:1,2017-10-02T08:00:00Z,25.2540,-80.4440,1.5,2.37,1111122 
ENP,ioos.station.NOAA.NDBC:HCEF1:1,2017-10-02T10:00:00Z,25.2540,-80.4440,1.5,2.35,1111122 
ENP,ioos.station.NOAA.NDBC:HCEF1:1,2017-10-02T11:00:00Z,25.2540,-80.4440,1.5,2.2,1111122 
ENP,ioos.station.NOAA.NDBC:HCEF1:1,2017-10-02T12:00:00Z,25.2540,-80.4440,1.5,2.07,1111122 
ENP,ioos.station.NOAA.NDBC:HCEF1:1,2017-10-02T13:00:00Z,25.2540,-80.4440,1.5,1.95,1111122 
ENP,ioos.station.NOAA.NDBC:HCEF1:1,2017-10-02T14:00:00Z,25.2540,-80.4440,1.5,2.23,1111122 
ENP,ioos.station.NOAA.NDBC:HCEF1:1,2017-10-02T15:00:00Z,25.2540,-80.4440,1.5,2.22,1111122 
ENP,ioos.station.NOAA.NDBC:HCEF1:1,2017-10-02T16:00:00Z,25.2540,-80.4440,1.5,2.24,1111122 
ENP,ioos.station.NOAA.NDBC:HCEF1:1,2017-10-02T17:00:00Z,25.2540,-80.4440,1.5,2.37,1111122 
ENP,ioos.station.NOAA.NDBC:HCEF1:1,2017-10-02T18:00:00Z,25.2540,-80.4440,1.5,2.44,1111122 
ENP,ioos.station.NOAA.NDBC:HCEF1:1,2017-10-02T19:00:00Z,25.2540,-80.4440,1.5,2.49,1111122 
ENP,ioos.station.NOAA.NDBC:HCEF1:1,2017-10-02T20:00:00Z,25.2540,-80.4440,1.5,2.46,1111122 
ENP,ioos.station.NOAA.NDBC:HCEF1:1,2017-10-02T21:00:00Z,25.2540,-80.4440,1.5,2.42,1111122 
ENP,ioos.station.NOAA.NDBC:HCEF1:1,2017-10-02T22:00:00Z,25.2540,-80.4440,1.5,2.28,1111122 
ENP,ioos.station.NOAA.NDBC:HCEF1:1,2017-10-02T23:00:00Z,25.2540,-80.4440,1.5,2.13,1111122 
ENP,ioos.station.NOAA.NDBC:HCEF1:1,2017-10-03T00:00:00Z,25.2540,-80.4440,1.5,1.9,1111122 
ENP,ioos.station.NOAA.NDBC:HCEF1:1,2017-10-03T02:00:00Z,25.2540,-80.4440,1.5,1.62,1111122 
ENP,ioos.station.NOAA.NDBC:HCEF1:1,2017-10-03T03:00:00Z,25.2540,-80.4440,1.5,1.71,1111122 
ENP,ioos.station.NOAA.NDBC:HCEF1:1,2017-10-03T05:00:00Z,25.2540,-80.4440,1.5,2.06,1111122 
ENP,ioos.station.NOAA.NDBC:HCEF1:1,2017-10-03T06:00:00Z,25.2540,-80.4440,1.5,2.28,1111122 
ENP,ioos.station.NOAA.NDBC:HCEF1:1,2017-10-03T07:00:00Z,25.2540,-80.4440,1.5,2.27,1111122 
ENP,ioos.station.NOAA.NDBC:HCEF1:1,2017-10-03T08:00:00Z,25.2540,-80.4440,1.5,2.23,1111122 
ENP,ioos.station.NOAA.NDBC:HCEF1:1,2017-10-03T11:00:00Z,25.2540,-80.4440,1.5,1.83,1111122 
ENP,ioos.station.NOAA.NDBC:HCEF1:1,2017-10-03T12:00:00Z,25.2540,-80.4440,1.5,1.83,1111122 
ENP,ioos.station.NOAA.NDBC:HCEF1:1,2017-10-03T13:00:00Z,25.2540,-80.4440,1.5,2.14,1111122 
ENP,ioos.station.NOAA.NDBC:HCEF1:1,2017-10-03T14:00:00Z,25.2540,-80.4440,1.5,2.27,1111122 
ENP,ioos.station.NOAA.NDBC:HCEF1:1,2017-10-03T15:00:00Z,25.2540,-80.4440,1.5,2.36,1111122 
ENP,ioos.station.NOAA.NDBC:HCEF1:1,2017-10-03T16:00:00Z,25.2540,-80.4440,1.5,2.33,1111122 
ENP,ioos.station.NOAA.NDBC:HCEF1:1,2017-10-03T17:00:00Z,25.2540,-80.4440,1.5,2.69,1111122 
ENP,ioos.station.NOAA.NDBC:HCEF1:1,2017-10-03T18:00:00Z,25.2540,-80.4440,1.5,2.7,1111122 
ENP,ioos.station.NOAA.NDBC:HCEF1:1,2017-10-03T19:00:00Z,25.2540,-80.4440,1.5,2.62,1111122 
ENP,ioos.station.NOAA.NDBC:HCEF1:1,2017-10-03T20:00:00Z,25.2540,-80.4440,1.5,2.8,1111122 
ENP,ioos.station.NOAA.NDBC:HCEF1:1,2017-10-03T21:00:00Z,25.2540,-80.4440,1.5,2.85,1111122 
ENP,ioos.station.NOAA.NDBC:HCEF1:1,2017-10-03T22:00:00Z,25.2540,-80.4440,1.5,2.51,1111122 
ENP,ioos.station.NOAA.NDBC:HCEF1:1,2017-10-03T23:00:00Z,25.2540,-80.4440,1.5,2.48,1111122 
ENP,ioos.station.NOAA.NDBC:HCEF1:1,2017-10-04T00:00:00Z,25.2540,-80.4440,1.5,2.48,1111122 
ENP,ioos.station.NOAA.NDBC:HCEF1:1,2017-10-04T02:00:00Z,25.2540,-80.4440,1.5,2.41,1111122 
ENP,ioos.station.NOAA.NDBC:HCEF1:1,2017-10-04T03:00:00Z,25.2540,-80.4440,1.5,2.41,1111122 
ENP,ioos.station.NOAA.NDBC:HCEF1:1,2017-10-04T05:00:00Z,25.2540,-80.4440,1.5,2.47,1111122 
ENP,ioos.station.NOAA.NDBC:HCEF1:1,2017-10-04T06:00:00Z,25.2540,-80.4440,1.5,2.36,1111122 
ENP,ioos.station.NOAA.NDBC:HCEF1:1,2017-10-04T07:00:00Z,25.2540,-80.4440,1.5,2.37,1111122 
ENP,ioos.station.NOAA.NDBC:HCEF1:1,2017-10-04T08:00:00Z,25.2540,-80.4440,1.5,2.3,1111122 
ENP,ioos.station.NOAA.NDBC:HCEF1:1,2017-10-04T10:00:00Z,25.2540,-80.4440,1.5,2.49,1111122 
ENP,ioos.station.NOAA.NDBC:HCEF1:1,2017-10-04T11:00:00Z,25.2540,-80.4440,1.5,2.52,1111122 
ENP,ioos.station.NOAA.NDBC:HCEF1:1,2017-10-04T12:00:00Z,25.2540,-80.4440,1.5,2.87,1111122 
ENP,ioos.station.NOAA.NDBC:HCEF1:1,2017-10-04T13:00:00Z,25.2540,-80.4440,1.5,2.99,1111122 
ENP,ioos.station.NOAA.NDBC:HCEF1:1,2017-10-04T14:00:00Z,25.2540,-80.4440,1.5,2.93,1111122 
ENP,ioos.station.NOAA.NDBC:HCEF1:1,2017-10-04T15:00:00Z,25.2540,-80.4440,1.5,2.79,1111122 
ENP,ioos.station.NOAA.NDBC:HCEF1:1,2017-10-04T16:00:00Z,25.2540,-80.4440,1.5,2.84,1111122 
ENP,ioos.station.NOAA.NDBC:HCEF1:1,2017-10-04T17:00:00Z,25.2540,-80.4440,1.5,3.57,1111122 
ENP,ioos.station.NOAA.NDBC:HCEF1:1,2017-10-04T18:00:00Z,25.2540,-80.4440,1.5,3.36,1111122 
ENP,ioos.station.NOAA.NDBC:HCEF1:1,2017-10-04T19:00:00Z,25.2540,-80.4440,1.5,3.49,1111122 
ENP,ioos.station.NOAA.NDBC:HCEF1:1,2017-10-04T20:00:00Z,25.2540,-80.4440,1.5,3.62,1111122 
ENP,ioos.station.NOAA.NDBC:HCEF1:1,2017-10-04T21:00:00Z,25.2540,-80.4440,1.5,3.91,1111122 
ENP,ioos.station.NOAA.NDBC:HCEF1:1,2017-10-04T22:00:00Z,25.2540,-80.4440,1.5,3.87,1111122 
ENP,ioos.station.NOAA.NDBC:HCEF1:1,2017-10-04T23:00:00Z,25.2540,-80.4440,1.5,4.97,1111122 
ENP,ioos.station.NOAA.NDBC:HCEF1:1,2017-10-05T00:00:00Z,25.2540,-80.4440,1.5,4.76,1111122 
ENP,ioos.station.NOAA.NDBC:HCEF1:1,2017-10-05T02:00:00Z,25.2540,-80.4440,1.5,5.42,1111122 
ENP,ioos.station.NOAA.NDBC:HCEF1:1,2017-10-05T03:00:00Z,25.2540,-80.4440,1.5,6.23,1111122 
ENP,ioos.station.NOAA.NDBC:HCEF1:1,2017-10-05T05:00:00Z,25.2540,-80.4440,1.5,6.93,1111122 
ENP,ioos.station.NOAA.NDBC:HCEF1:1,2017-10-05T06:00:00Z,25.2540,-80.4440,1.5,7.32,1111122 
ENP,ioos.station.NOAA.NDBC:HCEF1:1,2017-10-05T07:00:00Z,25.2540,-80.4440,1.5,7.44,1111122 
ENP,ioos.station.NOAA.NDBC:HCEF1:1,2017-10-05T08:00:00Z,25.2540,-80.4440,1.5,7.6,1111122 
ENP,ioos.station.NOAA.NDBC:HCEF1:1,2017-10-05T10:00:00Z,25.2540,-80.4440,1.5,7.59,1111122 
ENP,ioos.station.NOAA.NDBC:HCEF1:1,2017-10-05T12:00:00Z,25.2540,-80.4440,1.5,9.28,1111122 
ENP,ioos.station.NOAA.NDBC:HCEF1:1,2017-10-05T13:00:00Z,25.2540,-80.4440,1.5,7.82,1111122 
ENP,ioos.station.NOAA.NDBC:HCEF1:1,2017-10-05T14:00:00Z,25.2540,-80.4440,1.5,8.94,1111122 
ENP,ioos.station.NOAA.NDBC:HCEF1:1,2017-10-05T15:00:00Z,25.2540,-80.4440,1.5,9.9,1111122 
ENP,ioos.station.NOAA.NDBC:HCEF1:1,2017-10-05T16:00:00Z,25.2540,-80.4440,1.5,10.26,1111122 
ENP,ioos.station.NOAA.NDBC:HCEF1:1,2017-10-05T17:00:00Z,25.2540,-80.4440,1.5,11.3,1111122 
ENP,ioos.station.NOAA.NDBC:HCEF1:1,2017-10-05T18:00:00Z,25.2540,-80.4440,1.5,11.65,1111122 
ENP,ioos.station.NOAA.NDBC:HCEF1:1,2017-10-05T19:00:00Z,25.2540,-80.4440,1.5,11.79,1111122 
ENP,ioos.station.NOAA.NDBC:HCEF1:1,2017-10-05T20:00:00Z,25.2540,-80.4440,1.5,12.06,1111122 
ENP,ioos.station.NOAA.NDBC:HCEF1:1,2017-10-05T21:00:00Z,25.2540,-80.4440,1.5,12.07,1111122 
ENP,ioos.station.NOAA.NDBC:HCEF1:1,2017-10-05T22:00:00Z,25.2540,-80.4440,1.5,12.28,1111122 
ENP,ioos.station.NOAA.NDBC:HCEF1:1,2017-10-05T23:00:00Z,25.2540,-80.4440,1.5,12.32,1111122 
ENP,ioos.station.NOAA.NDBC:HCEF1:1,2017-10-06T00:00:00Z,25.2540,-80.4440,1.5,12.36,1111122 
ENP,ioos.station.NOAA.NDBC:HCEF1:1,2017-10-06T03:00:00Z,25.2540,-80.4440,1.5,12.26,1111122 
ENP,ioos.station.NOAA.NDBC:HCEF1:1,2017-10-06T05:00:00Z,25.2540,-80.4440,1.5,12.22,1111122 
ENP,ioos.station.NOAA.NDBC:HCEF1:1,2017-10-06T06:00:00Z,25.2540,-80.4440,1.5,12.24,1111122 
ENP,ioos.station.NOAA.NDBC:HCEF1:1,2017-10-06T07:00:00Z,25.2540,-80.4440,1.5,12.45,1111122 
ENP,ioos.station.NOAA.NDBC:HCEF1:1,2017-10-06T08:00:00Z,25.2540,-80.4440,1.5,12.85,1111122 
ENP,ioos.station.NOAA.NDBC:HCEF1:1,2017-10-06T10:00:00Z,25.2540,-80.4440,1.5,13.19,1111122 
ENP,ioos.station.NOAA.NDBC:HCEF1:1,2017-10-06T11:00:00Z,25.2540,-80.4440,1.5,13.16,1111122 
ENP,ioos.station.NOAA.NDBC:HCEF1:1,2017-10-06T12:00:00Z,25.2540,-80.4440,1.5,12.35,1111122 
ENP,ioos.station.NOAA.NDBC:HCEF1:1,2017-10-06T13:00:00Z,25.2540,-80.4440,1.5,12.75,1111122 
ENP,ioos.station.NOAA.NDBC:HCEF1:1,2017-10-06T14:00:00Z,25.2540,-80.4440,1.5,12.12,1111122 
ENP,ioos.station.NOAA.NDBC:HCEF1:1,2017-10-06T15:00:00Z,25.2540,-80.4440,1.5,9.08,1111122 
ENP,ioos.station.NOAA.NDBC:HCEF1:1,2017-10-06T16:00:00Z,25.2540,-80.4440,1.5,11.15,1111122 
ENP,ioos.station.NOAA.NDBC:HCEF1:1,2017-10-06T17:00:00Z,25.2540,-80.4440,1.5,11.01,1111122 
ENP,ioos.station.NOAA.NDBC:HCEF1:1,2017-10-06T18:00:00Z,25.2540,-80.4440,1.5,11.67,1111122 
ENP,ioos.station.NOAA.NDBC:HCEF1:1,2017-10-06T19:00:00Z,25.2540,-80.4440,1.5,11.74,1111122 
ENP,ioos.station.NOAA.NDBC:HCEF1:1,2017-10-06T20:00:00Z,25.2540,-80.4440,1.5,11.91,1111122 
ENP,ioos.station.NOAA.NDBC:HCEF1:1,2017-10-06T21:00:00Z,25.2540,-80.4440,1.5,12.71,1111122 
ENP,ioos.station.NOAA.NDBC:HCEF1:1,2017-10-06T22:00:00Z,25.2540,-80.4440,1.5,13.11,1111122 
ENP,ioos.station.NOAA.NDBC:HCEF1:1,2017-10-06T23:00:00Z,25.2540,-80.4440,1.5,13.24,1111122 
ENP,ioos.station.NOAA.NDBC:HCEF1:1,2017-10-07T00:00:00Z,25.2540,-80.4440,1.5,13.24,1111122 
ENP,ioos.station.NOAA.NDBC:HCEF1:1,2017-10-07T02:00:00Z,25.2540,-80.4440,1.5,12.88,1111122 
ENP,ioos.station.NOAA.NDBC:HCEF1:1,2017-10-07T03:00:00Z,25.2540,-80.4440,1.5,12.42,1111122 
ENP,ioos.station.NOAA.NDBC:HCEF1:1,2017-10-07T05:00:00Z,25.2540,-80.4440,1.5,11.69,1111122 
ENP,ioos.station.NOAA.NDBC:HCEF1:1,2017-10-07T06:00:00Z,25.2540,-80.4440,1.5,10.74,1111122 
ENP,ioos.station.NOAA.NDBC:HCEF1:1,2017-10-07T07:00:00Z,25.2540,-80.4440,1.5,10.68,1111122 
ENP,ioos.station.NOAA.NDBC:HCEF1:1,2017-10-07T08:00:00Z,25.2540,-80.4440,1.5,10.7,1111122 
ENP,ioos.station.NOAA.NDBC:HCEF1:1,2017-10-07T10:00:00Z,25.2540,-80.4440,1.5,10.79,1111122 
ENP,ioos.station.NOAA.NDBC:HCEF1:1,2017-10-07T11:00:00Z,25.2540,-80.4440,1.5,10.85,1111122 
ENP,ioos.station.NOAA.NDBC:HCEF1:1,2017-10-07T12:00:00Z,25.2540,-80.4440,1.5,10.88,1111122 
ENP,ioos.station.NOAA.NDBC:HCEF1:1,2017-10-07T13:00:00Z,25.2540,-80.4440,1.5,10.82,1111122 
ENP,ioos.station.NOAA.NDBC:HCEF1:1,2017-10-07T14:00:00Z,25.2540,-80.4440,1.5,10.59,1111122 
ENP,ioos.station.NOAA.NDBC:HCEF1:1,2017-10-07T15:00:00Z,25.2540,-80.4440,1.5,10.26,1111122 
ENP,ioos.station.NOAA.NDBC:HCEF1:1,2017-10-07T16:00:00Z,25.2540,-80.4440,1.5,9.92,1111122 
ENP,ioos.station.NOAA.NDBC:HCEF1:1,2017-10-07T17:00:00Z,25.2540,-80.4440,1.5,9.97,1111122 
ENP,ioos.station.NOAA.NDBC:HCEF1:1,2017-10-07T18:00:00Z,25.2540,-80.4440,1.5,10.18,1111122 
ENP,ioos.station.NOAA.NDBC:HCEF1:1,2017-10-07T19:00:00Z,25.2540,-80.4440,1.5,10.48,1111122 
ENP,ioos.station.NOAA.NDBC:HCEF1:1,2017-10-07T20:00:00Z,25.2540,-80.4440,1.5,10.5,1111122 
ENP,ioos.station.NOAA.NDBC:HCEF1:1,2017-10-07T21:00:00Z,25.2540,-80.4440,1.5,10.66,1111122 
ENP,ioos.station.NOAA.NDBC:HCEF1:1,2017-10-07T22:00:00Z,25.2540,-80.4440,1.5,10.74,1111122 
ENP,ioos.station.NOAA.NDBC:HCEF1:1,2017-10-07T23:00:00Z,25.2540,-80.4440,1.5,10.81,1111122 
ENP,ioos.station.NOAA.NDBC:HCEF1:1,2017-10-08T00:00:00Z,25.2540,-80.4440,1.5,11.56,1111122 
ENP,ioos.station.NOAA.NDBC:HCEF1:1,2017-10-08T02:00:00Z,25.2540,-80.4440,1.5,11.93,1111122 
ENP,ioos.station.NOAA.NDBC:HCEF1:1,2017-10-08T03:00:00Z,25.2540,-80.4440,1.5,12.49,1111122 
ENP,ioos.station.NOAA.NDBC:HCEF1:1,2017-10-08T05:00:00Z,25.2540,-80.4440,1.5,12.65,1111122 
ENP,ioos.station.NOAA.NDBC:HCEF1:1,2017-10-08T06:00:00Z,25.2540,-80.4440,1.5,12.67,1111122 
ENP,ioos.station.NOAA.NDBC:HCEF1:1,2017-10-08T07:00:00Z,25.2540,-80.4440,1.5,12.69,1111122 
ENP,ioos.station.NOAA.NDBC:HCEF1:1,2017-10-08T08:00:00Z,25.2540,-80.4440,1.5,12.71,1111122 
ENP,ioos.station.NOAA.NDBC:HCEF1:1,2017-10-08T10:00:00Z,25.2540,-80.4440,1.5,12.88,1111122 
ENP,ioos.station.NOAA.NDBC:HCEF1:1,2017-10-08T11:00:00Z,25.2540,-80.4440,1.5,12.93,1111122 
ENP,ioos.station.NOAA.NDBC:HCEF1:1,2017-10-08T12:00:00Z,25.2540,-80.4440,1.5,12.83,1111122 
ENP,ioos.station.NOAA.NDBC:HCEF1:1,2017-10-08T13:00:00Z,25.2540,-80.4440,1.5,12.76,1111122 
ENP,ioos.station.NOAA.NDBC:HCEF1:1,2017-10-08T14:00:00Z,25.2540,-80.4440,1.5,12.68,1111122 
ENP,ioos.station.NOAA.NDBC:HCEF1:1,2017-10-08T15:00:00Z,25.2540,-80.4440,1.5,12.3,1111122 
ENP,ioos.station.NOAA.NDBC:HCEF1:1,2017-10-08T16:00:00Z,25.2540,-80.4440,1.5,12.47,1111122 
ENP,ioos.station.NOAA.NDBC:HCEF1:1,2017-10-08T17:00:00Z,25.2540,-80.4440,1.5,11.0,1111122 
ENP,ioos.station.NOAA.NDBC:HCEF1:1,2017-10-08T18:00:00Z,25.2540,-80.4440,1.5,11.04,1111122 
ENP,ioos.station.NOAA.NDBC:HCEF1:1,2017-10-08T19:00:00Z,25.2540,-80.4440,1.5,11.39,1111122 
ENP,ioos.station.NOAA.NDBC:HCEF1:1,2017-10-08T20:00:00Z,25.2540,-80.4440,1.5,8.97,1111122 
ENP,ioos.station.NOAA.NDBC:HCEF1:1,2017-10-08T21:00:00Z,25.2540,-80.4440,1.5,8.04,1111122 
ENP,ioos.station.NOAA.NDBC:HCEF1:1,2017-10-08T22:00:00Z,25.2540,-80.4440,1.5,9.13,1111122 
ENP,ioos.station.NOAA.NDBC:HCEF1:1,2017-10-08T23:00:00Z,25.2540,-80.4440,1.5,9.1,1111122 
ENP,ioos.station.NOAA.NDBC:HCEF1:1,2017-10-09T00:00:00Z,25.2540,-80.4440,1.5,9.36,1111122 
ENP,ioos.station.NOAA.NDBC:HCEF1:1,2017-10-09T02:00:00Z,25.2540,-80.4440,1.5,10.56,1111122 
ENP,ioos.station.NOAA.NDBC:HCEF1:1,2017-10-09T03:00:00Z,25.2540,-80.4440,1.5,10.99,1111122 
ENP,ioos.station.NOAA.NDBC:HCEF1:1,2017-10-09T05:00:00Z,25.2540,-80.4440,1.5,6.09,1111122 
ENP,ioos.station.NOAA.NDBC:HCEF1:1,2017-10-09T06:00:00Z,25.2540,-80.4440,1.5,8.59,1111122 
ENP,ioos.station.NOAA.NDBC:HCEF1:1,2017-10-09T07:00:00Z,25.2540,-80.4440,1.5,10.99,1111122 
ENP,ioos.station.NOAA.NDBC:HCEF1:1,2017-10-09T10:00:00Z,25.2540,-80.4440,1.5,12.23,1111122 
ENP,ioos.station.NOAA.NDBC:HCEF1:1,2017-10-09T11:00:00Z,25.2540,-80.4440,1.5,12.26,1111122 
ENP,ioos.station.NOAA.NDBC:HCEF1:1,2017-10-09T12:00:00Z,25.2540,-80.4440,1.5,12.59,1111122 
ENP,ioos.station.NOAA.NDBC:HCEF1:1,2017-10-09T13:00:00Z,25.2540,-80.4440,1.5,12.82,1111122 
ENP,ioos.station.NOAA.NDBC:HCEF1:1,2017-10-09T14:00:00Z,25.2540,-80.4440,1.5,12.98,1111122 
ENP,ioos.station.NOAA.NDBC:HCEF1:1,2017-10-09T15:00:00Z,25.2540,-80.4440,1.5,12.25,1111122 
ENP,ioos.station.NOAA.NDBC:HCEF1:1,2017-10-09T16:00:00Z,25.2540,-80.4440,1.5,12.14,1111122 
ENP,ioos.station.NOAA.NDBC:HCEF1:1,2017-10-09T18:00:00Z,25.2540,-80.4440,1.5,6.5,1111122 
ENP,ioos.station.NOAA.NDBC:HCEF1:1,2017-10-09T19:00:00Z,25.2540,-80.4440,1.5,3.96,1111122 
ENP,ioos.station.NOAA.NDBC:HCEF1:1,2017-10-09T20:00:00Z,25.2540,-80.4440,1.5,2.24,1111122 
ENP,ioos.station.NOAA.NDBC:HCEF1:1,2017-10-09T21:00:00Z,25.2540,-80.4440,1.5,3.82,1111122 
ENP,ioos.station.NOAA.NDBC:HCEF1:1,2017-10-09T22:00:00Z,25.2540,-80.4440,1.5,3.98,1111122 
ENP,ioos.station.NOAA.NDBC:HCEF1:1,2017-10-09T23:00:00Z,25.2540,-80.4440,1.5,2.75,1111122 
ENP,ioos.station.NOAA.NDBC:HCEF1:1,2017-10-10T00:00:00Z,25.2540,-80.4440,1.5,4.13,1111122 
ENP,ioos.station.NOAA.NDBC:HCEF1:1,2017-10-10T02:00:00Z,25.2540,-80.4440,1.5,3.15,1111122 
ENP,ioos.station.NOAA.NDBC:HCEF1:1,2017-10-10T03:00:00Z,25.2540,-80.4440,1.5,3.18,1111122 
ENP,ioos.station.NOAA.NDBC:HCEF1:1,2017-10-10T05:00:00Z,25.2540,-80.4440,1.5,3.3,1111122 
ENP,ioos.station.NOAA.NDBC:HCEF1:1,2017-10-10T06:00:00Z,25.2540,-80.4440,1.5,3.31,1111122 
ENP,ioos.station.NOAA.NDBC:HCEF1:1,2017-10-10T07:00:00Z,25.2540,-80.4440,1.5,3.29,1111122 
ENP,ioos.station.NOAA.NDBC:HCEF1:1,2017-10-10T08:00:00Z,25.2540,-80.4440,1.5,3.1,1111122 
ENP,ioos.station.NOAA.NDBC:HCEF1:1,2017-10-10T10:00:00Z,25.2540,-80.4440,1.5,3.65,1111122 
ENP,ioos.station.NOAA.NDBC:HCEF1:1,2017-10-10T11:00:00Z,25.2540,-80.4440,1.5,3.99,1111122 
ENP,ioos.station.NOAA.NDBC:HCEF1:1,2017-10-10T12:00:00Z,25.2540,-80.4440,1.5,4.26,1111122 
ENP,ioos.station.NOAA.NDBC:HCEF1:1,2017-10-10T13:00:00Z,25.2540,-80.4440,1.5,4.13,1111122 
ENP,ioos.station.NOAA.NDBC:HCEF1:1,2017-10-10T14:00:00Z,25.2540,-80.4440,1.5,4.13,1111122 
ENP,ioos.station.NOAA.NDBC:HCEF1:1,2017-10-10T15:00:00Z,25.2540,-80.4440,1.5,4.08,1111122 
ENP,ioos.station.NOAA.NDBC:HCEF1:1,2017-10-10T16:00:00Z,25.2540,-80.4440,1.5,4.07,1111122 
ENP,ioos.station.NOAA.NDBC:HCEF1:1,2017-10-10T17:00:00Z,25.2540,-80.4440,1.5,3.97,1111122 
ENP,ioos.station.NOAA.NDBC:HCEF1:1,2017-10-10T18:00:00Z,25.2540,-80.4440,1.5,3.88,1111122 
ENP,ioos.station.NOAA.NDBC:HCEF1:1,2017-10-10T19:00:00Z,25.2540,-80.4440,1.5,3.7,1111122 
ENP,ioos.station.NOAA.NDBC:HCEF1:1,2017-10-10T20:00:00Z,25.2540,-80.4440,1.5,3.37,1111122 
ENP,ioos.station.NOAA.NDBC:HCEF1:1,2017-10-10T21:00:00Z,25.2540,-80.4440,1.5,3.1,1111122 
ENP,ioos.station.NOAA.NDBC:HCEF1:1,2017-10-10T22:00:00Z,25.2540,-80.4440,1.5,3.01,1111122 
ENP,ioos.station.NOAA.NDBC:HCEF1:1,2017-10-10T23:00:00Z,25.2540,-80.4440,1.5,2.94,1111122 
ENP,ioos.station.NOAA.NDBC:HCEF1:1,2017-10-11T00:00:00Z,25.2540,-80.4440,1.5,3.03,1111122 
ENP,ioos.station.NOAA.NDBC:HCEF1:1,2017-10-11T02:00:00Z,25.2540,-80.4440,1.5,3.74,1111122 
ENP,ioos.station.NOAA.NDBC:HCEF1:1,2017-10-11T03:00:00Z,25.2540,-80.4440,1.5,3.44,1111122 
ENP,ioos.station.NOAA.NDBC:HCEF1:1,2017-10-11T05:00:00Z,25.2540,-80.4440,1.5,2.59,1111122 
ENP,ioos.station.NOAA.NDBC:HCEF1:1,2017-10-11T06:00:00Z,25.2540,-80.4440,1.5,2.5,1111122 
ENP,ioos.station.NOAA.NDBC:HCEF1:1,2017-10-11T07:00:00Z,25.2540,-80.4440,1.5,2.49,1111122 
ENP,ioos.station.NOAA.NDBC:HCEF1:1,2017-10-11T08:00:00Z,25.2540,-80.4440,1.5,2.52,1111122 
ENP,ioos.station.NOAA.NDBC:HCEF1:1,2017-10-11T10:00:00Z,25.2540,-80.4440,1.5,2.68,1111122 
ENP,ioos.station.NOAA.NDBC:HCEF1:1,2017-10-11T13:00:00Z,25.2540,-80.4440,1.5,2.46,1111122 
ENP,ioos.station.NOAA.NDBC:HCEF1:1,2017-10-11T14:00:00Z,25.2540,-80.4440,1.5,2.37,1111122 
ENP,ioos.station.NOAA.NDBC:HCEF1:1,2017-10-11T15:00:00Z,25.2540,-80.4440,1.5,2.25,1111122 
ENP,ioos.station.NOAA.NDBC:HCEF1:1,2017-10-11T16:00:00Z,25.2540,-80.4440,1.5,2.23,1111122 
ENP,ioos.station.NOAA.NDBC:HCEF1:1,2017-10-11T17:00:00Z,25.2540,-80.4440,1.5,2.16,1111122 
ENP,ioos.station.NOAA.NDBC:HCEF1:1,2017-10-11T18:00:00Z,25.2540,-80.4440,1.5,2.21,1111122 
ENP,ioos.station.NOAA.NDBC:HCEF1:1,2017-10-11T19:00:00Z,25.2540,-80.4440,1.5,2.28,1111122 
ENP,ioos.station.NOAA.NDBC:HCEF1:1,2017-10-11T20:00:00Z,25.2540,-80.4440,1.5,2.23,1111122 
ENP,ioos.station.NOAA.NDBC:HCEF1:1,2017-10-11T21:00:00Z,25.2540,-80.4440,1.5,2.07,1111122 
ENP,ioos.station.NOAA.NDBC:HCEF1:1,2017-10-11T22:00:00Z,25.2540,-80.4440,1.5,1.89,1111122 
ENP,ioos.station.NOAA.NDBC:HCEF1:1,2017-10-11T23:00:00Z,25.2540,-80.4440,1.5,1.79,1111122 
ENP,ioos.station.NOAA.NDBC:HCEF1:1,2017-10-12T00:00:00Z,25.2540,-80.4440,1.5,1.81,1111122 
ENP,ioos.station.NOAA.NDBC:HCEF1:1,2017-10-12T02:00:00Z,25.2540,-80.4440,1.5,2.41,1111122 
ENP,ioos.station.NOAA.NDBC:HCEF1:1,2017-10-12T03:00:00Z,25.2540,-80.4440,1.5,2.91,1111122 
ENP,ioos.station.NOAA.NDBC:HCEF1:1,2017-10-12T05:00:00Z,25.2540,-80.4440,1.5,2.31,1111122 
ENP,ioos.station.NOAA.NDBC:HCEF1:1,2017-10-12T06:00:00Z,25.2540,-80.4440,1.5,2.47,1111122 
ENP,ioos.station.NOAA.NDBC:HCEF1:1,2017-10-12T07:00:00Z,25.2540,-80.4440,1.5,3.11,1111122 
ENP,ioos.station.NOAA.NDBC:HCEF1:1,2017-10-12T08:00:00Z,25.2540,-80.4440,1.5,2.89,1111122 
ENP,ioos.station.NOAA.NDBC:HCEF1:1,2017-10-12T11:00:00Z,25.2540,-80.4440,1.5,2.97,1111122 
ENP,ioos.station.NOAA.NDBC:HCEF1:1,2017-10-12T12:00:00Z,25.2540,-80.4440,1.5,3.58,1111122 
ENP,ioos.station.NOAA.NDBC:HCEF1:1,2017-10-12T13:00:00Z,25.2540,-80.4440,1.5,3.84,1111122 
ENP,ioos.station.NOAA.NDBC:HCEF1:1,2017-10-12T14:00:00Z,25.2540,-80.4440,1.5,4.04,1111122 
ENP,ioos.station.NOAA.NDBC:HCEF1:1,2017-10-12T15:00:00Z,25.2540,-80.4440,1.5,4.11,1111122 
ENP,ioos.station.NOAA.NDBC:HCEF1:1,2017-10-12T16:00:00Z,25.2540,-80.4440,1.5,3.46,1111122 
ENP,ioos.station.NOAA.NDBC:HCEF1:1,2017-10-12T17:00:00Z,25.2540,-80.4440,1.5,3.34,1111122 
ENP,ioos.station.NOAA.NDBC:HCEF1:1,2017-10-12T18:00:00Z,25.2540,-80.4440,1.5,3.37,1111122 
ENP,ioos.station.NOAA.NDBC:HCEF1:1,2017-10-12T19:00:00Z,25.2540,-80.4440,1.5,2.97,1111122 
ENP,ioos.station.NOAA.NDBC:HCEF1:1,2017-10-12T20:00:00Z,25.2540,-80.4440,1.5,2.92,1111122 
ENP,ioos.station.NOAA.NDBC:HCEF1:1,2017-10-12T21:00:00Z,25.2540,-80.4440,1.5,2.92,1111122 
ENP,ioos.station.NOAA.NDBC:HCEF1:1,2017-10-12T22:00:00Z,25.2540,-80.4440,1.5,2.97,1111122 
ENP,ioos.station.NOAA.NDBC:HCEF1:1,2017-10-12T23:00:00Z,25.2540,-80.4440,1.5,3.0,1111122 
ENP,ioos.station.NOAA.NDBC:HCEF1:1,2017-10-13T00:00:00Z,25.2540,-80.4440,1.5,3.12,1111122 
ENP,ioos.station.NOAA.NDBC:HCEF1:1,2017-10-13T02:00:00Z,25.2540,-80.4440,1.5,3.4,1111122 
ENP,ioos.station.NOAA.NDBC:HCEF1:1,2017-10-13T03:00:00Z,25.2540,-80.4440,1.5,3.48,1111122 
ENP,ioos.station.NOAA.NDBC:HCEF1:1,2017-10-13T05:00:00Z,25.2540,-80.4440,1.5,3.72,1111122 
ENP,ioos.station.NOAA.NDBC:HCEF1:1,2017-10-13T06:00:00Z,25.2540,-80.4440,1.5,3.89,1111122 
ENP,ioos.station.NOAA.NDBC:HCEF1:1,2017-10-13T07:00:00Z,25.2540,-80.4440,1.5,3.95,1111122 
ENP,ioos.station.NOAA.NDBC:HCEF1:1,2017-10-13T08:00:00Z,25.2540,-80.4440,1.5,3.8,1111122 
ENP,ioos.station.NOAA.NDBC:HCEF1:1,2017-10-13T10:00:00Z,25.2540,-80.4440,1.5,3.67,1111122 
ENP,ioos.station.NOAA.NDBC:HCEF1:1,2017-10-13T11:00:00Z,25.2540,-80.4440,1.5,3.78,1111122 
ENP,ioos.station.NOAA.NDBC:HCEF1:1,2017-10-13T12:00:00Z,25.2540,-80.4440,1.5,4.17,1111122 
ENP,ioos.station.NOAA.NDBC:HCEF1:1,2017-10-13T13:00:00Z,25.2540,-80.4440,1.5,4.39,1111122 
ENP,ioos.station.NOAA.NDBC:HCEF1:1,2017-10-13T14:00:00Z,25.2540,-80.4440,1.5,4.29,1111122 
ENP,ioos.station.NOAA.NDBC:HCEF1:1,2017-10-13T15:00:00Z,25.2540,-80.4440,1.5,4.32,1111122 
ENP,ioos.station.NOAA.NDBC:HCEF1:1,2017-10-13T16:00:00Z,25.2540,-80.4440,1.5,4.36,1111122 
ENP,ioos.station.NOAA.NDBC:HCEF1:1,2017-10-13T17:00:00Z,25.2540,-80.4440,1.5,4.41,1111122 
ENP,ioos.station.NOAA.NDBC:HCEF1:1,2017-10-13T18:00:00Z,25.2540,-80.4440,1.5,4.42,1111122 
ENP,ioos.station.NOAA.NDBC:HCEF1:1,2017-10-13T19:00:00Z,25.2540,-80.4440,1.5,4.42,1111122 
ENP,ioos.station.NOAA.NDBC:HCEF1:1,2017-10-13T20:00:00Z,25.2540,-80.4440,1.5,4.38,1111122 
ENP,ioos.station.NOAA.NDBC:HCEF1:1,2017-10-13T21:00:00Z,25.2540,-80.4440,1.5,4.21,1111122 